Location: Erlenbrunn
(49.1717°N, 7.6142°E)
Time: 08:45:32
(UTC+00:00)

Cosmos 1295 Rocket - Pass Details

Date: 25 November 2020
Orbit: 945 x 993 km, 82.9° (Epoch: 25 January)

Event Time Altitude Azimuth Distance (km) Brightness Sun altitude
Rises 16:42:36 0° 351° (N) 3,640 7.4 -10.3°
Reaches altitude 10° 16:45:06 10° 352° (N) 2,695 6.7 -10.7°
Maximum altitude 16:51:17 81° 81° (E) 980 4.4 -11.7°
Drops below altitude 10° 16:57:30 10° 169° (SSE) 2,709 6.9 -12.7°
Sets 17:00:00 0° 170° (S) 3,659 7.6 -13.0°
